Location: El Águila
(10.4167°N, 66.7167°W)
Time: 05:03:57
(UTC+00:00)

Cosmos 2333 Rocket - Pass Details

Date: 02 October 2022
Orbit: 841 x 861 km, 70.8° (Epoch: 26 November)

Event Time Altitude Azimuth Distance (km) Brightness Sun altitude
Rises 22:59:51 0° 164° (SSE) 3,423 5.2 -11.4°
Reaches altitude 10° 23:03:04 10° 146° (SE) 2,489 4.3 -12.2°
Maximum altitude 23:06:53 18° 103° (ESE) 1,959 3.5 -13.2°
Enters shadow 23:07:30 18° 95° (E) 1,975 3.5 -13.3°
